Location: Bakov nad Jizerou
(50.4784°N, 14.9394°E)
Time: 14:18:01
(UTC+00:00)

ATLAS CENTAUR R/B - Visible Passes

Search period start: 22 October 2021 00:00
Search period end: 01 November 2021 00:00
Orbit: 459 x 683 km, 64.7° (Epoch: 15 October)

Date Brightness Start Highest point End Pass type
(mag) Time Alt. Az. Time Alt. Az. Time Alt. Az.
22 Oct 3.5 02:14:01 25° NE 02:14:01 25° NE 02:15:59 10° NE visible
22 Oct 2.5 03:50:09 27° NW 03:50:55 28° NNW 03:54:48 10° NNE visible
23 Oct 3.6 02:16:04 24° NE 02:16:04 24° NE 02:17:54 10° NE visible
23 Oct 2.8 03:52:12 22° NW 03:52:58 24° NNW 03:56:36 10° NNE visible
24 Oct 3.7 02:18:04 22° NE 02:18:04 22° NE 02:19:46 10° NE visible
24 Oct 3.1 03:54:12 19° NW 03:55:03 20° NNW 03:58:24 10° NNE visible
25 Oct 3.7 02:20:01 20° NNE 02:20:01 20° NNE 02:21:35 10° NE visible
25 Oct 3.3 03:56:09 17° NW 03:57:08 18° NNW 04:00:13 10° NNE visible
26 Oct 3.8 02:21:57 19° NNE 02:21:57 19° NNE 02:23:23 10° NNE visible
26 Oct 3.5 03:58:05 15° NNW 03:59:16 16° NNW 04:02:05 10° NNE visible
27 Oct 3.9 02:23:51 17° NNE 02:23:51 17° NNE 02:25:10 10° NNE visible
27 Oct 3.6 03:59:58 13° NNW 04:01:24 15° N 04:03:59 10° NNE visible
28 Oct 4.0 02:25:44 16° NNE 02:25:44 16° NNE 02:26:57 10° NNE visible
28 Oct 3.7 04:01:51 12° NNW 04:03:34 14° N 04:05:58 10° NNE visible
29 Oct 4.1 02:27:35 15° NNE 02:27:35 15° NNE 02:28:44 10° NNE visible
29 Oct 3.8 04:03:42 11° NNW 04:05:43 14° N 04:08:04 10° NNE visible
30 Oct 4.1 02:29:26 14° NNE 02:29:26 14° NNE 02:30:32 10° NNE visible
30 Oct 3.9 04:05:34 10° NNW 04:07:53 14° N 04:10:16 10° NE visible
31 Oct 4.2 02:31:16 13° NNE 02:31:16 13° NNE 02:32:22 10° NNE visible
31 Oct 3.9 04:07:33 10° NNW 04:10:02 14° N 04:12:35 10° NE visible
